| time (UTC) | temp F | wind direction | speed MPH | gust MPH | rain 1hr in | rain 24hr in | rain mn in | humidity % | barometer mb |
| 20260509150838 | 67 | 158 | 1.0 | 2.0 | 0.00 | 0.00 | 0.00 | 38 | 1005.3 |
| 20260509145908 | 65 | 135 | 2.0 | 3.0 | 0.00 | 0.00 | 0.00 | 43 | 1005.4 |
| 20260509144033 | 62 | 158 | 2.0 | 3.0 | 0.00 | 0.00 | 0.00 | 49 | 1005.5 |
| 20260509143213 | 61 | 180 | 1.0 | 2.0 | 0.00 | 0.00 | 0.00 | 56 | 1005.5 |
| 20260509142248 | 60 | 248 | 2.0 | 4.0 | 0.00 | 0.00 | 0.00 | 61 | 1005.7 |
| 20260509140541 | 58 | 0 | 0.0 | 1.0 | 0.00 | 0.00 | 0.00 | 59 | 1005.7 |
| 20260509135621 | 56 | 225 | 1.0 | 3.0 | 0.00 | 0.00 | 0.00 | 67 | 1005.7 |
| 20260509134723 | 54 | 0 | 0.0 | 2.0 | 0.00 | 0.00 | 0.00 | 73 | 1005.6 |
| 20260509133828 | 51 | 202 | 2.0 | 4.0 | 0.00 | 0.00 | 0.00 | 73 | 1005.7 |
| 20260509132141 | 50 | 90 | 2.0 | 3.0 | 0.00 | 0.00 | 0.00 | 77 | 1005.5 |
| 20260509131233 | 50 | 0 | 0.0 | 3.0 | 0.00 | 0.00 | 0.00 | 75 | 1005.4 |
| 20260509125421 | 48 | 292 | 1.0 | 3.0 | 0.00 | 0.00 | 0.00 | 74 | 1004.9 |
| 20260509124553 | 48 | 0 | 2.0 | 5.0 | 0.00 | 0.00 | 0.00 | 74 | 1004.8 |
| 20260509123707 | 47 | 0 | 2.0 | 3.0 | 0.00 | 0.00 | 0.00 | 79 | 1004.7 |
| 20260509122721 | 47 | 0 | 2.0 | 9.0 | 0.00 | 0.00 | 0.00 | 79 | 1004.7 |
| 20260509121813 | 47 | 202 | 1.0 | 2.0 | 0.00 | 0.00 | 0.00 | 79 | 1004.4 |
| 20260509120813 | 47 | 338 | 1.0 | 2.0 | 0.00 | 0.00 | 0.00 | 80 | 1004.3 |
| 20260509115958 | 47 | 45 | 1.0 | 2.0 | 0.00 | 0.00 | 0.00 | 81 | 1004.2 |
| 20260509115118 | 47 | 338 | 1.0 | 2.0 | 0.00 | 0.00 | 0.00 | 81 | 1004.3 |
| 20260509114232 | 46 | 158 | 2.0 | 5.0 | 0.00 | 0.00 | 0.00 | 81 | 1004.2 |
| 20260509113348 | 46 | 202 | 3.0 | 7.0 | 0.00 | 0.00 | 0.00 | 80 | 1004.2 |
| 20260509112358 | 46 | 315 | 1.0 | 3.0 | 0.00 | 0.00 | 0.00 | 80 | 1004.0 |
| 20260509111508 | 47 | 270 | 4.0 | 10.0 | 0.00 | 0.00 | 0.00 | 81 | 1004.2 |
| 20260509110653 | 47 | 45 | 2.0 | 3.0 | 0.00 | 0.00 | 0.00 | 81 | 1003.8 |
| 20260509105653 | 47 | 0 | 0.0 | 2.0 | 0.00 | 0.00 | 0.00 | 80 | 1004.2 |
| 20260509104813 | 47 | 68 | 1.0 | 3.0 | 0.00 | 0.00 | 0.00 | 79 | 1004.1 |
| 20260509104401 | 47 | 270 | 2.0 | 4.0 | 0.00 | 0.00 | 0.00 | 79 | 1004.0 |
| 20260509103941 | 47 | 270 | 2.0 | 4.0 | 0.00 | 0.00 | 0.00 | 79 | 1004.0 |
| 20260509103013 | 47 | 338 | 1.0 | 2.0 | 0.00 | 0.00 | 0.00 | 79 | 1003.8 |
| 20260509102403 | 48 | 338 | 1.0 | 2.0 | 0.00 | 0.00 | 0.00 | 79 | 1004.0 |
| 20260509102143 | 48 | 338 | 1.0 | 2.0 | 0.00 | 0.00 | 0.00 | 79 | 1004.0 |
| 20260509101248 | 48 | 270 | 1.0 | 3.0 | 0.00 | 0.00 | 0.00 | 79 | 1004.0 |
| 20260509100258 | 48 | 45 | 1.0 | 2.0 | 0.00 | 0.00 | 0.00 | 79 | 1004.0 |
| 20260509095428 | 49 | 112 | 3.0 | 6.0 | 0.00 | 0.00 | 0.00 | 79 | 1003.9 |
| 20260509094618 | 49 | 180 | 1.0 | 4.0 | 0.00 | 0.00 | 0.00 | 79 | 1004.0 |
| 20260509093859 | 49 | 180 | 1.0 | 4.0 | 0.00 | 0.00 | 0.00 | 78 | 1004.1 |
| 20260509093743 | 49 | 180 | 1.0 | 4.0 | 0.00 | 0.00 | 0.00 | 78 | 1004.1 |
| 20260509092923 | 49 | 270 | 2.0 | 4.0 | 0.00 | 0.00 | 0.00 | 77 | 1004.2 |
| 20260509092403 | 49 | 158 | 1.0 | 3.0 | 0.00 | 0.00 | 0.00 | 77 | 1004.1 |
| 20260509092103 | 49 | 158 | 1.0 | 3.0 | 0.00 | 0.00 | 0.00 | 77 | 1004.1 |
| 20260509091153 | 48 | 0 | 3.0 | 6.0 | 0.00 | 0.00 | 0.00 | 76 | 1003.9 |
| 20260509090258 | 49 | 22 | 2.0 | 4.0 | 0.00 | 0.00 | 0.00 | 75 | 1003.8 |
| 20260509085413 | 49 | 270 | 1.0 | 2.0 | 0.00 | 0.00 | 0.00 | 74 | 1003.9 |
| 20260509084438 | 49 | 0 | 0.0 | 1.0 | 0.00 | 0.00 | 0.00 | 74 | 1003.8 |
| 20260509083901 | 49 | 0 | 0.0 | 1.0 | 0.00 | 0.00 | 0.00 | 74 | 1003.8 |
| 20260509083528 | 49 | 0 | 0.0 | 1.0 | 0.00 | 0.00 | 0.00 | 74 | 1003.8 |
| 20260509082713 | 50 | 270 | 1.0 | 3.0 | 0.00 | 0.00 | 0.00 | 75 | 1003.9 |
| 20260509081738 | 50 | 292 | 1.0 | 2.0 | 0.00 | 0.00 | 0.00 | 75 | 1003.8 |
| 20260509080923 | 50 | 292 | 1.0 | 3.0 | 0.00 | 0.00 | 0.00 | 74 | 1003.9 |
| 20260509075953 | 50 | 0 | 0.0 | 1.0 | 0.00 | 0.00 | 0.00 | 73 | 1004.0 |
| 20260509075128 | 51 | 0 | 0.0 | 2.0 | 0.00 | 0.00 | 0.00 | 73 | 1004.0 |
| 20260509074153 | 51 | 0 | 0.0 | 2.0 | 0.00 | 0.00 | 0.00 | 73 | 1004.1 |
| 20260509073405 | 51 | 112 | 1.0 | 2.0 | 0.00 | 0.00 | 0.00 | 72 | 1004.2 |
| 20260509073321 | 51 | 112 | 1.0 | 2.0 | 0.00 | 0.00 | 0.00 | 72 | 1004.2 |
| 20260509072401 | 51 | 0 | 0.0 | 1.0 | 0.00 | 0.00 | 0.00 | 72 | 1004.4 |
| 20260509071836 | 52 | 270 | 1.0 | 3.0 | 0.00 | 0.00 | 0.00 | 71 | 1004.4 |
| 20260509071438 | 52 | 270 | 1.0 | 3.0 | 0.00 | 0.00 | 0.00 | 71 | 1004.4 |
| 20260509070438 | 52 | 0 | 0.0 | 1.0 | 0.00 | 0.00 | 0.00 | 72 | 1004.5 |
| 20260509065603 | 52 | 248 | 1.0 | 2.0 | 0.00 | 0.00 | 0.00 | 71 | 1004.7 |
| 20260509065402 | 53 | 0 | 0.0 | 1.0 | 0.00 | 0.00 | 0.00 | 69 | 1004.7 |
| 20260509064738 | 53 | 0 | 0.0 | 1.0 | 0.00 | 0.00 | 0.00 | 69 | 1004.7 |
| 20260509063021 | 54 | 270 | 1.0 | 3.0 | 0.00 | 0.00 | 0.00 | 68 | 1004.8 |
| 20260509062405 | 54 | 0 | 2.0 | 5.0 | 0.00 | 0.00 | 0.00 | 68 | 1004.8 |
| 20260509062153 | 54 | 0 | 2.0 | 5.0 | 0.00 | 0.00 | 0.00 | 68 | 1004.8 |
| 20260509061452 | 54 | 0 | 2.0 | 5.0 | 0.00 | 0.00 | 0.00 | 68 | 1004.8 |
| 20260509061208 | 54 | 0 | 2.0 | 5.0 | 0.00 | 0.00 | 0.00 | 68 | 1004.8 |
| 20260509060404 | 54 | 22 | 3.0 | 4.0 | 0.00 | 0.00 | 0.00 | 68 | 1005.0 |
| 20260509060228 | 54 | 22 | 3.0 | 4.0 | 0.00 | 0.00 | 0.00 | 68 | 1005.0 |
| 20260509055450 | 53 | 45 | 1.0 | 3.0 | 0.00 | 0.00 | 0.00 | 71 | 1005.3 |
| 20260509055408 | 53 | 0 | 3.0 | 5.0 | 0.00 | 0.00 | 0.00 | 70 | 1005.2 |
| 20260509054538 | 53 | 45 | 1.0 | 3.0 | 0.00 | 0.00 | 0.00 | 71 | 1005.3 |
| 20260509053723 | 53 | 45 | 1.0 | 2.0 | 0.00 | 0.00 | 0.00 | 70 | 1005.2 |
| 20260509052918 | 53 | 338 | 1.0 | 2.0 | 0.00 | 0.00 | 0.00 | 71 | 1005.4 |
| 20260509052403 | 53 | 338 | 1.0 | 2.0 | 0.00 | 0.00 | 0.00 | 71 | 1005.4 |
| 20260509052038 | 53 | 338 | 1.0 | 2.0 | 0.00 | 0.00 | 0.00 | 71 | 1005.4 |
| 20260509051148 | 53 | 0 | 0.0 | 1.0 | 0.00 | 0.00 | 0.00 | 72 | 1005.4 |
| 20260509050338 | 53 | 248 | 1.0 | 2.0 | 0.00 | 0.00 | 0.00 | 72 | 1005.4 |
| 20260509045338 | 53 | 0 | 0.0 | 2.0 | 0.00 | 0.00 | 0.00 | 72 | 1005.5 |
| 20260509044403 | 54 | 248 | 1.0 | 2.0 | 0.00 | 0.00 | 0.00 | 72 | 1005.7 |
| 20260509043431 | 54 | 0 | 0.0 | 1.0 | 0.00 | 0.00 | 0.00 | 70 | 1005.9 |
| 20260509042954 | 54 | 248 | 1.0 | 2.0 | 0.00 | 0.00 | 0.00 | 70 | 1006.0 |
| 20260509042613 | 54 | 248 | 1.0 | 2.0 | 0.00 | 0.00 | 0.00 | 70 | 1006.0 |
| 20260509041658 | 55 | 0 | 0.0 | 2.0 | 0.00 | 0.00 | 0.00 | 71 | 1006.2 |
| 20260509040738 | 55 | 202 | 1.0 | 2.0 | 0.00 | 0.00 | 0.00 | 71 | 1006.1 |
| 20260509035838 | 56 | 202 | 1.0 | 2.0 | 0.00 | 0.00 | 0.00 | 68 | 1006.1 |
| 20260509034203 | 56 | 0 | 0.0 | 2.0 | 0.00 | 0.01 | 0.00 | 64 | 1006.2 |
| 20260509033322 | 57 | 0 | 0.0 | 2.0 | 0.00 | 0.01 | 0.00 | 61 | 1006.2 |
| 20260509033218 | 57 | 0 | 0.0 | 2.0 | 0.00 | 0.01 | 0.00 | 61 | 1006.2 |
| 20260509032218 | 57 | 0 | 0.0 | 2.0 | 0.00 | 0.01 | 0.00 | 59 | 1006.3 |
| 20260509031353 | 58 | 270 | 1.0 | 2.0 | 0.00 | 0.01 | 0.00 | 57 | 1006.1 |
| 20260509030423 | 59 | 0 | 0.0 | 1.0 | 0.00 | 0.01 | 0.00 | 56 | 1006.0 |
| 20260509025613 | 59 | 0 | 0.0 | 1.0 | 0.00 | 0.01 | 0.00 | 56 | 1006.0 |
| 20260509024718 | 60 | 270 | 1.0 | 2.0 | 0.00 | 0.01 | 0.00 | 53 | 1005.9 |
| 20260509023718 | 61 | 0 | 0.0 | 2.0 | 0.00 | 0.01 | 0.00 | 51 | 1005.7 |
| 20260509022718 | 61 | 135 | 1.0 | 3.0 | 0.00 | 0.01 | 0.00 | 49 | 1005.6 |
| 20260509021833 | 62 | 112 | 1.0 | 3.0 | 0.00 | 0.01 | 0.00 | 48 | 1005.6 |
| 20260509020853 | 63 | 90 | 2.0 | 4.0 | 0.00 | 0.01 | 0.00 | 47 | 1005.6 |
| 20260509015907 | 64 | 112 | 2.0 | 5.0 | 0.00 | 0.01 | 0.00 | 47 | 1005.5 |
| 20260509014918 | 64 | 112 | 2.0 | 5.0 | 0.00 | 0.01 | 0.00 | 46 | 1005.4 |
| 20260509013938 | 65 | 112 | 2.0 | 6.0 | 0.00 | 0.01 | 0.00 | 46 | 1005.4 |
| 20260509013412 | 65 | 135 | 3.0 | 7.0 | 0.00 | 0.01 | 0.00 | 46 | 1005.2 |
| 20260509013134 | 65 | 135 | 3.0 | 7.0 | 0.00 | 0.01 | 0.00 | 46 | 1005.2 |
| 20260509012318 | 66 | 68 | 1.0 | 3.0 | 0.00 | 0.01 | 0.00 | 44 | 1005.2 |
| 20260509011451 | 67 | 135 | 3.0 | 10.0 | 0.00 | 0.01 | 0.00 | 44 | 1005.1 |
| 20260509011435 | 67 | 135 | 1.0 | 2.0 | 0.00 | 0.01 | 0.00 | 43 | 1005.1 |
| 20260509010631 | 67 | 135 | 3.0 | 10.0 | 0.00 | 0.01 | 0.00 | 44 | 1005.1 |
| 20260509005748 | 67 | 112 | 3.0 | 6.0 | 0.00 | 0.01 | 0.00 | 42 | 1005.2 |
| 20260509005454 | 67 | 112 | 3.0 | 6.0 | 0.00 | 0.01 | 0.00 | 40 | 1005.0 |
| 20260509004923 | 67 | 112 | 3.0 | 6.0 | 0.00 | 0.01 | 0.00 | 40 | 1005.0 |
| 20260509004347 | 68 | 135 | 3.0 | 6.0 | 0.00 | 0.01 | 0.00 | 43 | 1005.0 |
| 20260509004048 | 68 | 135 | 3.0 | 6.0 | 0.00 | 0.01 | 0.00 | 43 | 1005.0 |
| 20260509003451 | 68 | 158 | 1.0 | 4.0 | 0.00 | 0.01 | 0.00 | 43 | 1005.1 |
| 20260509003048 | 68 | 158 | 1.0 | 4.0 | 0.00 | 0.01 | 0.00 | 43 | 1005.1 |
| 20260509002341 | 68 | 135 | 3.0 | 5.0 | 0.00 | 0.01 | 0.00 | 40 | 1005.1 |
| 20260509002141 | 68 | 135 | 3.0 | 5.0 | 0.00 | 0.01 | 0.00 | 40 | 1005.1 |
| 20260509001153 | 69 | 112 | 4.0 | 7.0 | 0.00 | 0.01 | 0.00 | 44 | 1005.1 |
| 20260509000341 | 69 | 135 | 2.0 | 6.0 | 0.00 | 0.01 | 0.00 | 44 | 1005.1 |
| 20260508235438 | 69 | 112 | 5.0 | 12.0 | 0.00 | 0.01 | 0.00 | 40 | 1005.0 |
| 20260508234553 | 69 | 158 | 5.0 | 10.0 | 0.00 | 0.01 | 0.00 | 42 | 1004.9 |
| 20260508233658 | 69 | 135 | 3.0 | 7.0 | 0.00 | 0.01 | 0.00 | 42 | 1005.0 |
| 20260508232733 | 70 | 135 | 3.0 | 7.0 | 0.00 | 0.01 | 0.00 | 41 | 1005.0 |
| 20260508232327 | 70 | 158 | 4.0 | 9.0 | 0.00 | 0.01 | 0.00 | 42 | 1004.9 |
| 20260508231908 | 70 | 158 | 4.0 | 9.0 | 0.00 | 0.01 | 0.00 | 42 | 1004.9 |
| 20260508231033 | 70 | 112 | 3.0 | 7.0 | 0.00 | 0.01 | 0.00 | 41 | 1004.9 |
| 20260508230221 | 70 | 158 | 3.0 | 12.0 | 0.00 | 0.01 | 0.00 | 42 | 1005.0 |
| 20260508225226 | 70 | 112 | 4.0 | 10.0 | 0.00 | 0.01 | 0.00 | 40 | 1004.9 |
| 20260508224308 | 71 | 135 | 4.0 | 11.0 | 0.00 | 0.01 | 0.00 | 42 | 1005.0 |
| 20260508223501 | 71 | 315 | 1.0 | 3.0 | 0.00 | 0.01 | 0.00 | 41 | 1005.1 |
| 20260508222533 | 71 | 135 | 3.0 | 9.0 | 0.00 | 0.01 | 0.00 | 38 | 1005.0 |
| 20260508221538 | 72 | 158 | 4.0 | 7.0 | 0.00 | 0.01 | 0.00 | 41 | 1005.2 |
| 20260508220638 | 72 | 135 | 3.0 | 8.0 | 0.00 | 0.01 | 0.00 | 43 | 1005.2 |
| 20260508215701 | 72 | 180 | 3.0 | 7.0 | 0.00 | 0.01 | 0.00 | 42 | 1005.4 |
| 20260508214759 | 71 | 180 | 3.0 | 7.0 | 0.00 | 0.01 | 0.00 | 43 | 1005.4 |
| 20260508213918 | 70 | 90 | 2.0 | 7.0 | 0.00 | 0.01 | 0.00 | 40 | 1005.4 |
| 20260508212948 | 71 | 45 | 4.0 | 11.0 | 0.00 | 0.01 | 0.00 | 42 | 1005.6 |
| 20260508212103 | 71 | 45 | 4.0 | 12.0 | 0.00 | 0.01 | 0.00 | 42 | 1005.5 |
| 20260508211303 | 70 | 225 | 1.0 | 3.0 | 0.00 | 0.01 | 0.00 | 40 | 1005.7 |
| 20260508210448 | 70 | 248 | 1.0 | 3.0 | 0.00 | 0.01 | 0.00 | 42 | 1005.8 |
| 20260508205548 | 71 | 135 | 3.0 | 5.0 | 0.00 | 0.01 | 0.00 | 42 | 1005.9 |
| 20260508204613 | 71 | 248 | 4.0 | 8.0 | 0.00 | 0.01 | 0.00 | 45 | 1006.0 |
| 20260508203738 | 71 | 180 | 3.0 | 7.0 | 0.00 | 0.01 | 0.00 | 44 | 1006.0 |
| 20260508202839 | 71 | 248 | 3.0 | 5.0 | 0.00 | 0.01 | 0.00 | 42 | 1006.1 |
| 20260508201958 | 70 | 68 | 2.0 | 5.0 | 0.00 | 0.01 | 0.00 | 40 | 1006.3 |
| 20260508201008 | 70 | 225 | 2.0 | 4.0 | 0.00 | 0.01 | 0.00 | 43 | 1006.4 |
| 20260508200115 | 70 | 180 | 3.0 | 6.0 | 0.00 | 0.01 | 0.00 | 49 | 1006.6 |
| 20260508195213 | 67 | 158 | 3.0 | 6.0 | 0.00 | 0.01 | 0.00 | 44 | 1006.8 |
| 20260508194408 | 67 | 135 | 3.0 | 7.0 | 0.00 | 0.01 | 0.00 | 47 | 1006.8 |
| 20260508193419 | 68 | 158 | 3.0 | 9.0 | 0.00 | 0.01 | 0.00 | 46 | 1006.9 |
| 20260508191458 | 67 | 135 | 2.0 | 5.0 | 0.00 | 0.01 | 0.00 | 46 | 1007.2 |
| 20260508190503 | 67 | 158 | 4.0 | 7.0 | 0.00 | 0.01 | 0.00 | 44 | 1007.3 |
| 20260508185541 | 66 | 180 | 3.0 | 6.0 | 0.00 | 0.01 | 0.00 | 48 | 1007.4 |
| 20260508184718 | 66 | 270 | 2.0 | 7.0 | 0.00 | 0.01 | 0.00 | 43 | 1007.6 |
| 20260508183726 | 66 | 225 | 2.0 | 4.0 | 0.00 | 0.01 | 0.00 | 44 | 1007.7 |
| 20260508182728 | 66 | 225 | 3.0 | 6.0 | 0.00 | 0.01 | 0.00 | 49 | 1007.8 |
| 20260508181839 | 65 | 135 | 2.0 | 4.0 | 0.00 | 0.01 | 0.00 | 45 | 1008.0 |
| 20260508181018 | 63 | 68 | 1.0 | 3.0 | 0.00 | 0.01 | 0.00 | 51 | 1008.1 |
| 20260508180138 | 63 | 68 | 2.0 | 3.0 | 0.00 | 0.01 | 0.00 | 48 | 1008.2 |
| 20260508175208 | 64 | 315 | 2.0 | 7.0 | 0.00 | 0.01 | 0.00 | 46 | 1008.4 |
| 20260508174321 | 64 | 45 | 3.0 | 9.0 | 0.00 | 0.01 | 0.00 | 48 | 1008.5 |
| 20260508173453 | 64 | 315 | 3.0 | 6.0 | 0.00 | 0.01 | 0.00 | 51 | 1008.7 |
| 20260508172521 | 63 | 68 | 3.0 | 6.0 | 0.00 | 0.01 | 0.00 | 52 | 1008.8 |
| 20260508171613 | 63 | 0 | 2.0 | 6.0 | 0.00 | 0.01 | 0.00 | 52 | 1008.8 |
| 20260508170641 | 63 | 45 | 4.0 | 9.0 | 0.00 | 0.01 | 0.00 | 48 | 1009.0 |
| 20260508165708 | 63 | 45 | 2.0 | 5.0 | 0.00 | 0.01 | 0.00 | 50 | 1009.1 |
| 20260508164038 | 63 | 112 | 2.0 | 4.0 | 0.00 | 0.01 | 0.00 | 54 | 1009.2 |
| 20260508163207 | 62 | 135 | 2.0 | 6.0 | 0.00 | 0.01 | 0.00 | 50 | 1009.2 |
| 20260508162313 | 62 | 68 | 3.0 | 6.0 | 0.00 | 0.01 | 0.00 | 51 | 1009.3 |
| 20260508161343 | 61 | 90 | 3.0 | 5.0 | 0.00 | 0.01 | 0.00 | 55 | 1009.2 |
| 20260508160538 | 61 | 135 | 3.0 | 6.0 | 0.00 | 0.01 | 0.00 | 55 | 1009.2 |
| 20260508155806 | 60 | 112 | 3.0 | 7.0 | 0.00 | 0.01 | 0.00 | 60 | 1009.3 |
| 20260508155658 | 60 | 112 | 3.0 | 7.0 | 0.00 | 0.01 | 0.00 | 60 | 1009.3 |
| 20260508154741 | 60 | 112 | 3.0 | 6.0 | 0.00 | 0.01 | 0.00 | 58 | 1009.2 |
| 20260508153748 | 60 | 135 | 3.0 | 6.0 | 0.00 | 0.01 | 0.00 | 58 | 1009.1 |
| 20260508152913 | 59 | 135 | 3.0 | 6.0 | 0.00 | 0.01 | 0.00 | 63 | 1009.1 |
| 20260508151913 | 56 | 158 | 2.0 | 5.0 | 0.00 | 0.01 | 0.00 | 68 | 1009.1 |